Weather History for Acapulco, Mexico

Change the Weather History Date:

Tuesday, November 13, 2012

  Actual Average Record
Temperature  
Mean Temperature 82 °F -  
Max Temperature 90 °F 90 °F 93 °F (1998)
Min Temperature 75 °F 73 °F 73 °F (1996)
Cooling Degree Days 18    
Growing Degree Days 32 (Base 50)    
Moisture  
Dew Point 75 °F    
Average Humidity 77    
Maximum Humidity 93    
Minimum Humidity 59    
Precipitation  
Precipitation 0.00 in 0.05 in - ()
Sea Level Pressure  
Sea Level Pressure 29.88 in    
Wind  
Wind Speed 2 mph ()    
Max Wind Speed 12 mph    
Max Gust Speed -    
Visibility 7.6 miles    
Events      
Averages and records for this station are not official NWS values.
T = Trace of Precipitation, MM = Missing Value Source: Averaged Metar Reports

Daily Weather History Graph

Daily Weather History Graph

Search for Another Location

Airport:

Trip Planner

Search our weather history database for the weather conditions in past years. The results will help you decide how hot, cold, wet, or windy it might be!

Date:

Astronomy

Nov. 13, 2012 Rise Set
Actual Time 6:42 AM CST 6:04 PM CST
Civil Twilight 6:19 AM CST 6:26 PM CST
Nautical Twilight 5:53 AM CST 6:53 PM CST
Astronomical Twilight 5:27 AM CST 7:19 PM CST
Moon 6:20 AM CST (11/13) 6:02 PM CST (11/13)
Length of Visible Light 12h 07m
Length of Day
11h 21m
Waning Crescent, 0% of the Moon is Illuminated
Nov 13
Waning Crescent
Nov 13
New
Nov 20
First Quarter
Nov 28
Full
Dec 6
Last Quarter

Hourly Weather History & Observations

Time (CST) Temp. Heat Index Dew Point Humidity Pressure Visibility Wind Dir Wind Speed Gust Speed Precip Events Conditions
12:43 AM 78.8 °F - 73.4 °F 83% 29.95 in 8.0 mi Calm Calm - N/A   Clear
1:45 AM 78.8 °F - 73.4 °F 83% 29.93 in 7.0 mi Calm Calm - N/A   Clear
2:43 AM 77.0 °F - 73.4 °F 89% 29.95 in 7.0 mi Calm Calm - N/A   Clear
2:45 AM 77 °F - 75 °F 93% 29.90 in 6 mi South 2.2 mph - -   Clear
3:42 AM 77.0 °F - 73.4 °F 89% 29.91 in 7.0 mi Calm Calm - N/A   Clear
4:43 AM 77.0 °F - 73.4 °F 89% 29.90 in 7.0 mi Calm Calm - N/A   Clear
5:50 AM 76 °F - 73 °F 89% 29.90 in 6 mi SSE 2.2 mph - -   Clear
5:50 AM 77.0 °F - 73.4 °F 89% 29.86 in 7.0 mi Calm Calm - N/A   Clear
6:43 AM 77.0 °F - 73.4 °F 89% 29.91 in 6.0 mi Calm Calm - N/A   Haze
7:45 AM 78.8 °F - 73.4 °F 83% 29.92 in 5.0 mi Calm Calm - N/A   Clear
8:46 AM 82.4 °F 88.2 °F 73.4 °F 74% 29.95 in 5.0 mi Calm Calm - N/A   Clear
8:50 AM 82 °F - 75 °F 74% 29.94 in 12 mi NNE 2.2 mph - -   Clear
9:42 AM 84.2 °F 90.9 °F 73.4 °F 70% 29.93 in 6.0 mi Calm Calm - N/A   Clear
10:45 AM 87.8 °F 95.6 °F 73.4 °F 62% 29.92 in 6.0 mi WSW 4.6 mph - N/A   Clear
11:44 AM 89.6 °F 99.8 °F 75.2 °F 62% 29.90 in 6.0 mi West 6.9 mph - N/A   Clear
11:50 AM 87 °F - 76 °F 62% 29.90 in 12 mi West 6.7 mph - -  
12:42 PM 91.4 °F 102.5 °F 75.2 °F 59% 29.87 in 6.0 mi West 11.5 mph - N/A   Clear
1:42 PM 89.6 °F 99.8 °F 75.2 °F 62% 29.84 in 8.0 mi WSW 11.5 mph - N/A   Clear
2:45 PM 89 °F - 78 °F 63% 29.81 in 12 mi West 8.9 mph - -   Scattered Clouds
2:47 PM 89.6 °F 98.2 °F 73.4 °F 59% 29.81 in 8.0 mi WSW 11.5 mph - N/A   Clear
3:43 PM 91.4 °F 102.5 °F 75.2 °F 59% 29.79 in 8.0 mi WSW 11.5 mph - N/A   Clear
4:43 PM 89.6 °F 99.8 °F 75.2 °F 62% 29.80 in 8.0 mi WSW 10.4 mph - N/A   Clear
5:45 PM 86.0 °F 99.3 °F 78.8 °F 79% 29.81 in 8.0 mi WSW 8.1 mph - N/A   Clear
5:50 PM 85 °F - 77 °F 71% 29.81 in 12 mi WNW 4.5 mph - -   Scattered Clouds
6:47 PM 86.0 °F 99.3 °F 78.8 °F 79% 29.82 in 8.0 mi Calm Calm - N/A   Clear
7:42 PM 84.2 °F 94.1 °F 77.0 °F 79% 29.84 in 8.0 mi Calm Calm - N/A   Clear
8:42 PM 84.2 °F 94.1 °F 77.0 °F 79% 29.87 in 8.0 mi Calm Calm - N/A   Clear
8:50 PM 81 °F - 77 °F 83% 29.88 in 6 mi SW 4.5 mph - -   Scattered Clouds
9:42 PM 82.4 °F 90.9 °F 77.0 °F 84% 29.88 in 8.0 mi Calm Calm - N/A   Clear
10:45 PM 80.6 °F 87.1 °F 77.0 °F 89% 29.90 in 8.0 mi Calm Calm - N/A   Clear
11:42 PM 80.6 °F 87.1 °F 77.0 °F 89% 29.93 in 8.0 mi Calm Calm - N/A   Clear
11:50 PM 80 °F - 77 °F 86% 29.90 in 6 mi NE 4.5 mph - -   Scattered Clouds